Simultaneous Nadir Overpasses (SNOs) Predictions

Prediction of SNOs between AQUA and NOAA-19 Satellite Orbit:

Table of predicted SNOs for the next 14.0 days since TLE Epoch: 5/12/2017
Index Date (AQUA) Time (AQUA) Lat,Lon (AQUA) SZA (AQUA ) Date (NOAA-19) Time (NOAA-19) Lat,Lon (NOAA-19) SZA (NOAA-19 ) Distance(km) Time Diff (sec)
1 05/13/2017 07:43:55 -80.96,-156.37 115.37 05/13/2017 07:42:50 -80.96,-156.22 115.35 2.56 65
2 05/13/2017 08:33:22 80.95, 11.32 64.62 05/13/2017 08:33:45 80.96, 11.21 64.63 1.94 23
3 05/15/2017 13:17:40 80.96, -59.85 64.11 05/15/2017 13:16:35 80.96, -59.72 64.13 2.22 65
4 05/15/2017 14:07:06 -80.96, 107.79 115.90 05/15/2017 14:07:41 -80.96, 107.63 115.90 2.81 35
5 05/17/2017 18:51:24 -80.97, 36.60 116.37 05/17/2017 18:50:31 -80.96, 36.70 116.37 2.27 53
6 05/17/2017 19:40:51 80.97,-155.73 63.62 05/17/2017 19:41:25 80.96,-155.56 63.58 3.28 34
7 05/20/2017 00:25:08 80.95, 133.39 63.12 05/20/2017 00:24:15 80.96, 133.48 63.14 1.67 53
8 05/20/2017 01:14:34 -80.95, -58.96 116.89 05/20/2017 01:15:20 -80.95, -58.78 116.93 3.20 46
9 05/22/2017 05:58:52 -80.96,-130.21 117.30 05/22/2017 05:58:11 -80.96,-130.16 117.29 1.20 41
10 05/22/2017 06:48:19 80.96, 37.43 62.70 05/22/2017 06:49:05 80.96, 37.60 62.65 3.15 46
11 05/24/2017 11:32:36 80.95, -33.51 62.27 05/24/2017 11:31:55 80.96, -33.39 62.28 2.12 41
12 05/24/2017 12:22:02 -80.95, 134.16 117.75 05/24/2017 12:23:00 -80.95, 134.26 117.78 1.90 58
13 05/26/2017 17:06:19 -80.94, 63.19 118.14 05/26/2017 17:05:50 -80.96, 63.18 118.12 1.49 29




NCC Satellite Simultaneous Nadir Overpasses (SNOs) Prediction Service
